Location: Unspecified
(0.0000°N, 0.0000°E)
Time: 13:40:10
(UTC+00:00)

Vanguard 2 - Pass Details

Date: 20 November 2019
Orbit: 553 x 2938 km, 32.9° (Epoch: 08 December)

Event Time Altitude Azimuth Distance (km) Brightness Sun altitude
Rises 19:34:47 0° 240° (WSW) 3,749 12.4 -25.6°
Reaches altitude 10° 19:40:09 10° 205° (SSW) 3,360 11.4 -26.8°
Maximum altitude 19:42:16 11° 190° (S) 3,503 11.2 -27.3°
Drops below altitude 10° 19:44:38 10° 176° (S) 3,823 11.3 -27.8°
Sets 19:52:49 0° 145° (SE) 5,589 11.8 -29.7°
